Terug naar catalogus

INMARSAT 5-F1

ActiefCommunicatieGEO
NORAD 39476·PAYLOAD·🇮🇲 IM

Gelanceerd Dec 8, 2013 vanaf Baikonur Cosmodrome

Loading…

TLE

VersSource: Space-Track

Epoch: Sep 14, 2026, 14:06 UTC

1 39476U 13073A   26257.58758106  .00000019  00000-0  00000-0 0  9995
2 39476   0.0189 145.4756 0000429   5.4608 116.8056  1.00272916 46475

Volg INMARSAT 5-F1 in realtime met AllMySat

Download on the App Store